Weather History for PAWG - November, 2014

Change the Weather History Date:

Tuesday, November 25, 2014

  Actual Average Record
Temperature  
Mean Temperature 40 °F -  
Max Temperature 42 °F 39 °F 56 °F (1956)
Min Temperature 37 °F 29 °F 10 °F (1985)
Degree Days  
Heating Degree Days 26    
Moisture  
Dew Point 36 °F    
Average Humidity 84    
Maximum Humidity 93    
Minimum Humidity 81    
Precipitation  
Precipitation 0.21 in - - ()
Sea Level Pressure  
Sea Level Pressure 30.18 in    
Wind  
Wind Speed 4 mph (ESE)    
Max Wind Speed 12 mph    
Max Gust Speed -    
Visibility 10 miles    
Events      
Averages and records for this station are not official NWS values.
T = Trace of Precipitation, MM = Missing Value Source: NWS Daily Summary

Daily Weather History Graph

Daily Weather History Graph

Search for Another Location

Airport or City:

Trip Planner

Search our weather history database for the weather conditions in past years. The results will help you decide how hot, cold, wet, or windy it might be!

Date:

Astronomy

Nov. 25, 2014 Rise Set
Actual Time 7:48 AM AKST 3:23 PM AKST
Civil Twilight 7:03 AM AKST 4:08 PM AKST
Nautical Twilight 6:15 AM AKST 4:56 PM AKST
Astronomical Twilight 5:30 AM AKST 5:41 PM AKST
Moon 10:31 AM AKST (11/25) 7:07 PM AKST (11/25)
Length of Visible Light 9h 05m
Length of Day
7h 34m
Waxing Crescent, 14% of the Moon is Illuminated
Nov 25
Waxing Crescent
Nov 29
First Quarter
Dec 6
Full
Dec 14
Last Quarter
Dec 21
New

Hourly Weather History & Observations

Time (AKST) Temp. Windchill Dew Point Humidity Pressure Visibility Wind Dir Wind Speed Gust Speed Precip Events Conditions
12:16 AM 41.0 °F - 35.6 °F 81% 30.11 in 10.0 mi Calm Calm - N/A   Overcast
12:36 AM 41.0 °F 39.0 °F 35.6 °F 81% 30.12 in 10.0 mi SSE 3.5 mph - N/A   Mostly Cloudy
12:56 AM 41.0 °F 38.0 °F 35.6 °F 81% 30.12 in 10.0 mi WNW 4.6 mph - N/A   Overcast
1:16 AM 41.0 °F - 35.6 °F 81% 30.12 in 10.0 mi Calm Calm - 0.01 in   Overcast
1:36 AM 42.8 °F - 37.4 °F 81% 30.13 in 10.0 mi Calm Calm - 0.01 in   Overcast
1:56 AM 41.0 °F 39.0 °F 35.6 °F 81% 30.13 in 10.0 mi ESE 3.5 mph - 0.02 in   Overcast
2:16 AM 41.0 °F 38.0 °F 37.4 °F 87% 30.13 in 10.0 mi SE 4.6 mph - 0.01 in   Overcast
2:36 AM 41.0 °F - 35.6 °F 81% 30.13 in 7.0 mi Calm Calm - 0.02 in   Overcast
2:56 AM 41.0 °F 36.4 °F 37.4 °F 87% 30.13 in 10.0 mi SE 6.9 mph - 0.02 in   Overcast
3:16 AM 41.0 °F 38.0 °F 35.6 °F 81% 30.14 in 10.0 mi SSE 4.6 mph - N/A   Overcast
3:36 AM 41.0 °F 37.1 °F 35.6 °F 81% 30.14 in 10.0 mi ESE 5.8 mph - N/A   Overcast
3:56 AM 41.0 °F - 35.6 °F 81% 30.14 in 10.0 mi Calm Calm - N/A   Overcast
4:16 AM 41.0 °F 38.0 °F 35.6 °F 81% 30.14 in 10.0 mi ESE 4.6 mph - 0.01 in   Overcast
4:36 AM 41.0 °F 39.0 °F 35.6 °F 81% 30.15 in 10.0 mi ESE 3.5 mph - 0.01 in   Overcast
4:56 AM 39.2 °F 37.0 °F 35.6 °F 87% 30.15 in 10.0 mi East 3.5 mph - 0.01 in   Overcast
5:16 AM 39.2 °F - 33.8 °F 81% 30.15 in 10.0 mi Calm Calm - N/A   Overcast
5:36 AM 39.2 °F 34.2 °F 35.6 °F 87% 30.15 in 10.0 mi ESE 6.9 mph - N/A   Overcast
5:56 AM 41.0 °F 36.4 °F 35.6 °F 81% 30.16 in 10.0 mi ESE 6.9 mph - N/A   Overcast
6:16 AM 41.0 °F 35.2 °F 35.6 °F 81% 30.15 in 10.0 mi ESE 9.2 mph - N/A   Overcast
6:36 AM 41.0 °F 37.1 °F 35.6 °F 81% 30.16 in 10.0 mi SE 5.8 mph - N/A   Overcast
6:56 AM 41.0 °F 34.7 °F 35.6 °F 81% 30.16 in 10.0 mi ESE 10.4 mph - N/A   Overcast
7:16 AM 41.0 °F 34.3 °F 35.6 °F 81% 30.16 in 10.0 mi ESE 11.5 mph - N/A   Overcast
7:36 AM 39.2 °F 35.0 °F 35.6 °F 87% 30.17 in 10.0 mi SE 5.8 mph - N/A   Overcast
7:56 AM 41.0 °F 35.8 °F 37.4 °F 87% 30.17 in 10.0 mi East 8.1 mph - N/A   Overcast
8:16 AM 41.0 °F 35.8 °F 35.6 °F 81% 30.17 in 10.0 mi ESE 8.1 mph - N/A   Overcast
8:36 AM 41.0 °F 35.8 °F 35.6 °F 81% 30.17 in 10.0 mi ESE 8.1 mph - N/A   Overcast
8:56 AM 41.0 °F 35.2 °F 35.6 °F 81% 30.18 in 10.0 mi East 9.2 mph - N/A   Overcast
9:16 AM 41.0 °F 35.8 °F 37.4 °F 87% 30.19 in 10.0 mi East 8.1 mph - N/A   Overcast
9:36 AM 41.0 °F 35.8 °F 37.4 °F 87% 30.19 in 10.0 mi ESE 8.1 mph - N/A   Overcast
9:56 AM 41.0 °F 36.4 °F 35.6 °F 81% 30.20 in 10.0 mi ESE 6.9 mph - N/A   Overcast
10:16 AM 41.0 °F 38.0 °F 35.6 °F 81% 30.20 in 10.0 mi West 4.6 mph - N/A   Overcast
10:36 AM 41.0 °F 39.0 °F 35.6 °F 81% 30.20 in 10.0 mi SW 3.5 mph - 0.01 in   Overcast
10:56 AM 41.0 °F 39.0 °F 37.4 °F 87% 30.21 in 10.0 mi ENE 3.5 mph - 0.02 in   Overcast
11:16 AM 41.0 °F 39.0 °F 37.4 °F 87% 30.21 in 10.0 mi East 3.5 mph - 0.02 in   Overcast
11:36 AM 41.0 °F 35.8 °F 37.4 °F 87% 30.21 in 10.0 mi East 8.1 mph - 0.04 in   Overcast
11:56 AM 41.0 °F 37.1 °F 37.4 °F 87% 30.20 in 10.0 mi East 5.8 mph - 0.04 in   Mostly Cloudy
12:16 PM 42.8 °F 38.0 °F 37.4 °F 81% 30.20 in 10.0 mi East 8.1 mph - N/A   Mostly Cloudy
12:36 PM 42.8 °F 38.0 °F 37.4 °F 81% 30.20 in 10.0 mi East 8.1 mph - N/A   Mostly Cloudy
12:56 PM 41.0 °F 36.4 °F 37.4 °F 87% 30.20 in 10.0 mi East 6.9 mph - N/A   Mostly Cloudy
1:16 PM 41.0 °F 36.4 °F 35.6 °F 81% 30.20 in 10.0 mi East 6.9 mph - N/A   Mostly Cloudy
1:36 PM 41.0 °F 37.1 °F 35.6 °F 81% 30.20 in 10.0 mi East 5.8 mph - N/A   Mostly Cloudy
1:56 PM 41.0 °F 38.0 °F 35.6 °F 81% 30.20 in 10.0 mi ESE 4.6 mph - N/A   Overcast
2:16 PM 41.0 °F - 35.6 °F 81% 30.20 in 10.0 mi Calm Calm - 0.01 in   Overcast
2:36 PM 41.0 °F - 35.6 °F 81% 30.20 in 10.0 mi Calm Calm - 0.01 in   Overcast
2:56 PM 41.0 °F - 35.6 °F 81% 30.20 in 10.0 mi Calm Calm - 0.02 in   Overcast
3:16 PM 41.0 °F - 35.6 °F 81% 30.20 in 10.0 mi Calm Calm - 0.01 in   Overcast
3:36 PM 41.0 °F - 37.4 °F 87% 30.21 in 10.0 mi Calm Calm - 0.01 in   Overcast
3:56 PM 41.0 °F 39.0 °F 35.6 °F 81% 30.21 in 10.0 mi SE 3.5 mph - 0.01 in   Overcast
4:16 PM 41.0 °F 39.0 °F 37.4 °F 87% 30.21 in 10.0 mi SE 3.5 mph - N/A   Overcast
4:36 PM 39.2 °F - 37.4 °F 93% 30.21 in 10.0 mi Calm Calm - N/A   Overcast
4:56 PM 39.2 °F 35.9 °F 37.4 °F 93% 30.21 in 10.0 mi SSE 4.6 mph - 0.02 in   Overcast
5:16 PM 39.2 °F 35.9 °F 35.6 °F 87% 30.21 in 10.0 mi SSE 4.6 mph - 0.03 in   Overcast
5:36 PM 39.2 °F 35.9 °F 35.6 °F 87% 30.20 in 10.0 mi SE 4.6 mph - 0.04 in   Overcast
5:56 PM 39.2 °F 37.0 °F 35.6 °F 87% 30.20 in 10.0 mi SE 3.5 mph - 0.05 in   Overcast
6:16 PM 39.2 °F - 35.6 °F 87% 30.21 in 10.0 mi Calm Calm - N/A   Overcast
6:36 PM 39.2 °F - 35.6 °F 87% 30.21 in 10.0 mi Calm Calm - N/A   Overcast
6:56 PM 39.2 °F 37.0 °F 35.6 °F 87% 30.21 in 10.0 mi West 3.5 mph - N/A   Overcast
7:16 PM 39.2 °F - 35.6 °F 87% 30.21 in 10.0 mi Calm Calm - N/A   Overcast
7:36 PM 39.2 °F 37.0 °F 35.6 °F 87% 30.21 in 10.0 mi WNW 3.5 mph - N/A   Overcast
7:56 PM 39.2 °F - 33.8 °F 81% 30.21 in 10.0 mi Calm Calm - N/A   Overcast
8:16 PM 39.2 °F 37.0 °F 33.8 °F 81% 30.21 in 10.0 mi WNW 3.5 mph - N/A   Overcast
8:36 PM 37.4 °F 34.9 °F 33.8 °F 87% 30.21 in 10.0 mi WNW 3.5 mph - N/A   Overcast
8:56 PM 39.2 °F - 35.6 °F 87% 30.21 in 10.0 mi Calm Calm - N/A   Overcast
9:16 PM 37.4 °F 34.9 °F 33.8 °F 87% 30.21 in 10.0 mi WNW 3.5 mph - N/A   Overcast
9:36 PM 39.2 °F 35.9 °F 35.6 °F 87% 30.22 in 10.0 mi WNW 4.6 mph - N/A   Overcast
9:56 PM 37.4 °F 33.8 °F 33.8 °F 87% 30.22 in 10.0 mi NW 4.6 mph - N/A   Overcast
10:16 PM 37.4 °F 33.8 °F 33.8 °F 87% 30.22 in 10.0 mi NNW 4.6 mph - N/A   Overcast
10:36 PM 37.4 °F - 33.8 °F 87% 30.23 in 10.0 mi Calm Calm - N/A   Overcast
10:56 PM 37.4 °F 34.9 °F 35.6 °F 93% 30.23 in 10.0 mi NW 3.5 mph - N/A   Overcast
11:16 PM 37.4 °F 33.8 °F 33.8 °F 87% 30.23 in 10.0 mi NNW 4.6 mph - N/A   Overcast
11:36 PM 37.4 °F 34.9 °F 33.8 °F 87% 30.23 in 10.0 mi NW 3.5 mph - N/A   Overcast
11:56 PM 37.4 °F 34.9 °F 33.8 °F 87% 30.23 in 10.0 mi NW 3.5 mph - N/A   Overcast